Regional Weather Roundup
Issued by NWS Wilmington, NC

Home | Current Version | Previous Version | Text Only | Print | Product List | Glossary On
Versions: 1 2 3 4 5 6 7 8 9 10 11 12 13 14 15 16 17 18 19 20 21 22 23 24 25 26 27
000
ASUS42 KILM 201613
RWRILM
RWRILM
REGIONAL HOURLY WEATHER ROUNDUP
NATIONAL WEATHER SERVICE WILMINGTON NC
1100 AM EST MON NOV 20 2017

NOTE: "FAIR" INDICATES FEW OR NO CLOUDS BELOW 12,000 FEET WITH NO
SIGNIFICANT WEATHER AND/OR OBSTRUCTIONS TO VISIBILITY.

...............WFO WILMINGTON COUNTY WARNING AREA...............

......COASTAL NC AND SC COUNTIES......

CITY           SKY/WX    TMP DP  RH WIND       PRES   REMARKS
WILMINGTON     SUNNY     53  29  39 N9        30.28S
N MYRTLE BEACH SUNNY     54  29  38 NE9       30.27S
MYRTLE BEACH   SUNNY     54  30  40 N10       30.29S

......INLAND NC AND SC COUNTIES.......

CITY           SKY/WX    TMP DP  RH WIND       PRES   REMARKS
LUMBERTON      SUNNY     54  24  31 N6        30.29R
ELIZABETHTOWN  NOT AVBL
WHITEVILLE     SUNNY     51  27  38 N5        30.28S
FLORENCE       SUNNY     53  28  38 NE3       30.30R
DARLINGTON     SUNNY     52  29  41 VRB6      30.30R
KINGSTREE      FAIR      52  30  43 N5        30.29S
HARTSVILLE     FAIR      52  27  37 CALM      30.29S
BENNETTSVILLE  FAIR      54  28  37 NE5       30.29S
CONWAY         FAIR      52  32  46 N6        30.29S HAZE
GEORGETOWN     FAIR      52  32  46 CALM      30.29S
MARION         FAIR      52  27  37 N5        30.30R

....................REST OF NORTH CAROLINA......................

.........EASTERN NC.........

CITY           SKY/WX    TMP DP  RH WIND       PRES   REMARKS
CAPE HATTERAS  SUNNY     52  34  50 VRB5      30.25S
JACKSONVILLE   SUNNY     51  27  39 VRB6      30.28S
MOREHEAD CITY  SUNNY     51  30  44 NW10      30.27S
KENANSVILLE    SUNNY     50  25  37 NW8       30.28S
NEW BERN       SUNNY     50  30  46 NW8       30.29R
ELIZABETH CITY SUNNY     50  26  39 NW9       30.26R

.........CENTRAL NC.........

CITY           SKY/WX    TMP DP  RH WIND       PRES   REMARKS
RALEIGH DURHAM SUNNY     48  21  34 NW8G17    30.27F
ROCKY MOUNT    SUNNY     48  27  44 N5        30.28S
ROANOKE RAPIDS NOT AVBL
FAYETTEVILLE   SUNNY     53  25  33 N9        30.28S
HOFFMAN        NOT AVBL

.........WESTERN NC.........

CITY           SKY/WX    TMP DP  RH WIND       PRES   REMARKS
CHARLOTTE      MOSUNNY   50  27  40 CALM      30.28S
GREENSBORO     SUNNY     49  17  28 NW8       30.26S
HICKORY        NOT AVBL
BOONE          NOT AVBL
ASHEVILLE      NOT AVBL

.....................REST OF SOUTH CAROLINA.....................

.........EASTERN SC.........

CITY           SKY/WX    TMP DP  RH WIND       PRES   REMARKS
CHARLESTON     MOSUNNY   55  31  39 NE8       30.27F
BEAUFORT MCAS  MOSUNNY   56  34  43 NE8       30.28S
HILTON HEAD    SUNNY     57  37  47 N7        30.28R

.........CENTRAL SC.........

CITY           SKY/WX    TMP DP  RH WIND       PRES   REMARKS
COLUMBIA       MOSUNNY   53  32  44 CALM      30.29R
ORANGEBURG     SUNNY     52  30  43 VRB6      30.29R
SUMTER SHAW    NOT AVBL

.........WESTERN SC.........

CITY           SKY/WX    TMP DP  RH WIND       PRES   REMARKS
GREENVILLE     NOT AVBL
ROCK HILL      SUNNY     50  28  42 CALM      30.28F
ANDERSON       SUNNY     49  33  54 CALM      30.28R
CLEMSON        NOT AVBL
GREENWOOD      SUNNY     49  29  46 CALM      30.29S


...................COASTAL AND OFFSHORE REPORTS..................

................LOCAL PIERS AND NC RESERVE................


STATION/POSITION TIME  SKY/WX   TEMP    WIND        PRES    VSBY
                                AIR SEA DIR/SP/G
                 (UTC)          (F)     (DEG/KT/KT) (MB)    (MI)
JOHNY MRCER PIER 1536            50 62  330/ 12/ 16 1025.0F
NC RESRV MASNBRO 1445            51      30/  2     1025.0
OCEAN CREST PIER NOT AVBL
SPRINGMAID  PIER 1536                               1024.6R


................COASTAL AND OFFSHORE BUOYS................


STATION/POSITION TIME  SKY/WX   TEMP    WIND        PRES    VSBY
                                AIR SEA DIR/SP/G
                 (UTC)          (F)     (DEG/KT/KT) (MB)    (MI)
DIMNDSHOAL 41025 1550            51 67  340/ 16/ 19 1024.3R
WVE H/P(F/S)=  4/ 8 SWL H/P/D(F/S/D)=  2/ 50/ 8

CAPE LOOKOUT     1600                   340/  8/ 11 1025.1R
ONSLOW BAY 41036 NOT AVBL
ONSLOW BAY 41064 1508            50 68  360/ 12/ 16 1024.9R
ONSLOW BAY 41159 1600               68                N/A
WVE H/P(F/S)=  4/ 4

MASNBO INL 41110 1559               64                N/A
WVE H/P(F/S)=  2/ 3

WILM HARBR 41108 1600               62                N/A
WVE H/P(F/S)=  2/ 4

27SE WRITB 41037 1508            51 68   10/ 14/ 23 1024.6R
FRYING PAN 41013 1550            53 70   10/ 16/ 21 1024.5R
WVE H/P(F/S)=  4/ 5

SUNST NRSH 41024 1508            49 61   30/ 12/ 16 1024.9R
CAPRS NRSH 41029 1508            50 63   40/ 14/ 19 1024.7R
EDISTO     41004 1550            59 74   40/ 16/ 21 1023.6F
WVE H/P(F/S)=  5/ 6



..........OFFSHORE BUOYS BEYOND 100 NM OFFSHORE...........
.....IN A TRIANGLE---HAT TO BERMUDA TO BAHAMAS TO HAT.....


STATION/POSITION TIME  SKY/WX   TEMP    WIND        PRES    VSBY
                                AIR SEA DIR/SP/G
                 (UTC)          (F)     (DEG/KT/KT) (MB)    (MI)
150E HAT   41001 NOT AVBL
W BERMUDA  41048 1550            71 76  360/ 14/ 17 1019.2R
WVE H/P(F/S)=  9/10 SWL H/P/D(F/S/D)=  7/290/10

ATLANTIC S 41049 1550            80 80  150/ 12/ 14 1017.5F
WVE H/P(F/S)=  5/11 SWL H/P/D(F/S/D)=  5/ 20/11

E BAHAMAS  41046 1550            77 81   90/ 14/ 17 1015.4F
WVE H/P(F/S)=  5/ 8 SWL H/P/D(F/S/D)=  3/ 40/ 8

NE BAHAMAS 41047 1550            71 80   10/ 10/ 12 1018.4S
WVE H/P(F/S)=  3/ 8 SWL H/P/D(F/S/D)=  3/100/ 8

120E CANVRL41010 NOT AVBL

END




USA.gov is the U.S. government's official web portal to all federal, state and local government web resources and services.